This demonstration page uses our WeatherBlox Daily Observations layout. Learn more.

Left ArrowRight Arrow

44.8408, -93.29828

Hourly Observations for November 29, 2015

Temp ( °F °C ) Dew Point ( °F °C ) Humidity (%) Winds ( mph kmh ) Pressure ( in mb ) Visibility ( mi km ) Precip ( " mm )
12:53 am 00:53 Clear 19 -7.2 12 -11.1 74 74 Calm 30.42 1030 8 13 0.00 0.00
1:53 am 01:53 Clear 19 -7.2 13 -10.6 77 77 SSW 5 7 30.42 1030 8 13 0.00 0.00
2:53 am 02:53 Mostly Clear 20 -6.7 14 -10 78 78 SSW 5 7 30.43 1030 8 13 0.00 0.00
3:53 am 03:53 Mostly Clear 21 -6.1 15 -9.4 78 78 Calm 30.42 1030 8 13 0.00 0.00
4:53 am 04:53 Mostly Cloudy 22 -5.6 16 -8.9 78 78 S 3 6 30.42 1030 9 14 0.00 0.00
5:53 am 05:53 Mostly Cloudy 23 -5 17 -8.3 78 78 Calm 30.41 1030 9 14 0.00 0.00
6:53 am 06:53 Cloudy 24 -4.4 18 -7.8 77 77 Calm 30.42 1030 9 14 0.00 0.00
7:53 am 07:53 Cloudy 24 -4.4 19 -7.2 81 81 ESE 3 6 30.42 1030 8 13 0.00 0.00
8:53 am 08:53 Cloudy 25 -3.9 19 -7.2 78 78 ESE 5 7 30.42 1030 8 13 0.00 0.00
9:53 am 09:53 Cloudy 27 -2.8 21 -6.1 78 78 Calm 30.42 1030 9 14 0.00 0.00
10:53 am 10:53 Cloudy 29 -1.7 21 -6.1 72 72 NE 6 9 30.42 1030 8 13 0.00 0.00
11:53 am 11:53 Cloudy 30 -1.1 20 -6.7 66 66 SE 3 6 30.42 1030 9 14 0.00 0.00
12:53 pm 12:53 Cloudy 32 0 20 -6.7 61 61 E 5 7 30.39 1029 10 16 0.00 0.00
1:53 pm 13:53 Cloudy 33 0.6 20 -6.7 58 58 ESE 5 7 30.38 1029 10 16 0.00 0.00
2:53 pm 14:53 Cloudy 33 0.6 19 -7.2 56 56 SE 5 7 30.37 1029 10 16 0.00 0.00
3:53 pm 15:53 Cloudy 33 0.6 22 -5.6 64 64 ESE 6 9 30.36 1028 10 16 0.00 0.00
4:53 pm 16:53 Mostly Cloudy 32 0 22 -5.6 66 66 ESE 6 9 30.35 1028 10 16 0.00 0.00
5:53 pm 17:53 Cloudy 31 -0.6 22 -5.6 69 69 ENE 7 11 30.35 1028 10 16 0.00 0.00
6:53 pm 18:53 Cloudy 31 -0.6 22 -5.6 69 69 SE 6 9 30.35 1028 10 16 0.00 0.00
7:53 pm 19:53 Cloudy 32 0 22 -5.6 66 66 ESE 7 11 30.35 1028 10 16 0.00 0.00
8:53 pm 20:53 Cloudy 31 -0.6 23 -5 72 72 ESE 5 7 30.34 1028 10 16 0.00 0.00
9:53 pm 21:53 Cloudy 31 -0.6 22 -5.6 69 69 SE 7 11 30.34 1027 10 16 0.00 0.00
10:53 pm 22:53 Cloudy 31 -0.6 23 -5 72 72 E 5 7 30.32 1027 10 16 0.00 0.00
11:53 pm 23:53 Cloudy 31 -0.6 23 -5 72 72 E 5 7 30.31 1026 10 16 0.00 0.00

Powered by AerisWeather